This demonstration page uses our WeatherBlox Daily Observations layout. Learn more.

Left ArrowRight Arrow

39.01783, -85.05884

Hourly Observations for October 6, 2020

Temp ( °F °C ) Dew Point ( °F °C ) Humidity (%) Winds ( mph kmh ) Pressure ( in mb ) Visibility ( mi km ) Precip ( " mm )
12:52 am 00:52 Clear 48 8.9 39 3.9 71 71 S 6 9 30.12 1020 10 16.0934 0 0
1:52 am 01:52 Clear 46 7.8 38 3.3 73 73 S 5 7 30.12 1020 10 16.0934 0 0
2:52 am 02:52 Clear 42 5.6 39 3.9 89 89 S 7 11 30.11 1020 10 16.0934 0 0
3:52 am 03:52 Clear 44 6.7 39 3.9 83 83 S 7 11 30.1 1019 10 16.0934 0 0
4:52 am 04:52 Clear 42 5.6 38 3.3 85 85 S 6 9 30.1 1019 10 16.0934 0 0
5:52 am 05:52 Clear 42 5.6 38 3.3 85 85 SSW 5 7 30.11 1020 10 16.0934 0 0
6:52 am 06:52 Clear 41 5 38 3.3 89 89 SSW 5 7 30.11 1020 10 16.0934 0 0
7:52 am 07:52 Sunny 42 5.6 39 3.9 89 89 Calm 30.11 1020 10 16.0934 0 0
8:52 am 08:52 Sunny 47 8.3 42 5.6 83 83 S 6 9 30.11 1020 10 16.0934 0 0
9:52 am 09:52 Sunny 53 11.7 44 6.7 72 72 SW 9 15 30.12 1020 10 16.0934 0 0
10:52 am 10:52 Sunny 58 14.4 45 7.2 62 62 SSW 10 17 30.11 1020 10 16.0934 0 0
11:52 am 11:52 Mostly Sunny 62 16.7 46 7.8 56 56 SSW 10 17 30.09 1019 10 16.0934 0 0
12:52 pm 12:52 Sunny 65 18.3 44 6.7 47 47 WSW 12 19 30.07 1018 10 16.0934 0 0
1:52 pm 13:52 Sunny 68 20 44 6.7 42 42 SSW 12 19 30.05 1018 10 16.0934 0 0
2:52 pm 14:52 Sunny 70 21.1 42 5.6 37 37 WSW 12 19 30.01 1016 10 16.0934 0 0
3:52 pm 15:52 Sunny 71 21.7 42 5.6 35 35 S 16 26 29.99 1016 10 16.0934 0 0
4:52 pm 16:52 Mostly Sunny 71 21.7 42 5.6 35 35 S 18 30 29.97 1015 10 16.0934 0 0
5:52 pm 17:52 Mostly Sunny 69 20.6 41 5 36 36 SSW 12 19 29.97 1015 10 16.0934 0 0
6:52 pm 18:52 Mostly Sunny 66 18.9 42 5.6 42 42 SSW 8 13 29.98 1015 10 16.0934 0 0
7:52 pm 19:52 Clear 64 17.8 42 5.6 45 45 SW 8 13 29.98 1015 10 16.0934 0 0
8:52 pm 20:52 Clear 62 16.7 42 5.6 48 48 SW 9 15 29.98 1015 10 16.0934 0 0
9:52 pm 21:52 Clear 60 15.6 41 5 50 50 SSW 8 13 29.97 1015 10 16.0934 0 0
10:52 pm 22:52 Clear 60 15.6 40 4.4 47 47 SSW 12 19 29.97 1015 10 16.0934 0 0
11:52 pm 23:52 Clear 59 15 40 4.4 49 49 SSW 8 13 29.97 1015 10 16.0934 0 0

Powered by AerisWeather